Flag for Germany Weather past 2 weeks in Lohne (Oldenburg), Lower Saxony, Germany

Now
45 °F

Scattered clouds.


Feels Like: 33 °F
Forecast: 38 / 45 °F
Wind: 40 mph from Northwest

Location: Bremen Airport

Current Time: Mar 31, 2015 at 7:30:25 PM

Latest Report: Mar 31, 2015 at 6:50 PM


Visibility: N/A

Pressure: 29.45 "Hg

Humidity: 66%

Dew point: 34 °F

Location of Lohne (Oldenburg)Location

Historic Weather in Lohne (Oldenburg) — Graph

°F

Lohne (Oldenburg) temperature yesterday

Maximum temperature yesterday: 48 °F (at 1:20 PM)
Minimum temperature yesterday: 39 °F (at 4:50 AM)
Average temperature yesterday: 43 °F

Past Weeks' High & Low Weather Summary

 TemperatureHumidityPressure
High61 °F (Mar 17, 3:50 PM)100% (Mar 19, 12:20 AM)30.42 "Hg (Mar 19, 12:20 AM)
Low28 °F (Mar 23, 5:20 AM)29% (Mar 19, 2:50 PM)29.00 "Hg (Mar 29, 8:20 PM)
Average44 °F79%29.92 "Hg
* Reported Mar 16 5:20 PM — Mar 31 6:20 PM, Lohne (Oldenburg), Weather by CustomWeather, © 2015

Note: Actual official high and low records may vary slightly from our data, if they occured in-between our weather recording intervals... More about our weather records

Advertising

Lohne (Oldenburg) weather history for previous 24 hours

 ConditionsComfort  
Time TempWeatherWind HumidityBarometerVisibility
6:20 PM
Tue, Mar 31
45 °FScattered clouds.32 mph71%29.42 "HgN/A
5:50 PM43 °FPassing clouds.36 mph81%29.42 "HgN/A
5:20 PM45 °FSprinkles. Scattered clouds.35 mph76%29.39 "HgN/A
4:50 PM43 °FSprinkles. Partly sunny.43 mph81%29.36 "HgN/A
4:20 PM45 °FSprinkles. Partly sunny.39 mph81%29.30 "HgN/A
3:50 PM45 °FSprinkles. Partly sunny.38 mph81%29.27 "HgN/A
3:20 PM45 °FSprinkles. Partly sunny.38 mph87%29.24 "HgN/A
2:50 PM45 °FSprinkles. Partly sunny.37 mph87%29.21 "HgN/A
2:20 PM45 °FSprinkles. Partly sunny.35 mph87%29.18 "HgN/A
1:50 PM45 °FSprinkles. Partly sunny.39 mph87%29.18 "HgN/A
1:20 PM45 °FSprinkles. Partly sunny.39 mph87%29.15 "HgN/A
12:50 PM45 °FSprinkles. Partly sunny.39 mph87%29.15 "HgN/A
12:20 PM46 °FSprinkles. Partly sunny.39 mph82%29.12 "HgN/A
11:50 AM46 °FSprinkles. Broken clouds.36 mph87%29.09 "Hg4 mi
11:20 AM46 °FSprinkles. Partly sunny.30 mph87%29.09 "Hg4 mi
10:50 AM46 °FSprinkles. Broken clouds.36 mph87%29.06 "HgN/A
10:20 AM46 °FSprinkles. Broken clouds.30 mph82%29.06 "Hg4 mi
9:50 AM48 °FPartly sunny.30 mph82%29.06 "HgN/A
9:20 AM48 °FSprinkles. Partly sunny.25 mph82%29.06 "HgN/A
8:50 AM48 °FSprinkles. Partly sunny.24 mph82%29.03 "HgN/A
8:20 AM48 °FPartly sunny.25 mph82%29.03 "HgN/A
7:50 AM46 °FLight rain. Partly cloudy.24 mph93%29.03 "HgN/A
7:20 AM45 °FLight rain. Passing clouds.20 mph93%29.00 "HgN/A
6:50 AM41 °FRain. Passing clouds.14 mph100%29.00 "Hg2 mi
6:20 AM39 °FRain. Passing clouds.16 mph100%29.03 "Hg6 mi
5:50 AM39 °FPassing clouds.15 mph93%29.09 "HgN/A
5:20 AM37 °FLight rain. Passing clouds.21 mph93%29.12 "HgN/A
4:50 AM36 °FLight rain. Passing clouds.17 mph100%29.18 "HgN/A
4:20 AM36 °FRain. Passing clouds.20 mph93%29.24 "Hg4 mi
3:50 AM36 °FRain. Passing clouds.18 mph100%29.30 "Hg4 mi
3:20 AM37 °FRain. Passing clouds.16 mph93%29.36 "Hg5 mi
2:50 AM37 °FLight rain. Passing clouds.16 mph93%29.42 "HgN/A
2:20 AM39 °FLight rain. Partly cloudy.20 mph81%29.47 "HgN/A
1:20 AM41 °FClear.10 mph66%29.53 "Hg10 mi
12:50 AM41 °FClear.14 mph70%29.56 "Hg10 mi
12:20 AM41 °FClear.13 mph70%29.59 "Hg10 mi
11:50 PM
Mon, Mar 30
41 °FClear.15 mph76%29.62 "Hg10 mi
11:20 PM41 °FClear.13 mph76%29.65 "Hg10 mi
10:50 PM41 °FClear.13 mph76%29.65 "Hg10 mi
10:20 PM41 °FPassing clouds.13 mph76%29.68 "HgN/A
9:50 PM39 °FPassing clouds.12 mph81%29.68 "HgN/A
9:20 PM39 °FPassing clouds.14 mph75%29.68 "HgN/A
8:50 PM41 °FPartly sunny.18 mph70%29.71 "HgN/A
8:20 PM41 °FScattered clouds.17 mph70%29.68 "HgN/A
7:50 PM43 °FScattered clouds.17 mph66%29.68 "HgN/A
7:20 PM43 °FScattered clouds.23 mph66%29.68 "HgN/A
Weather by CustomWeather, © 2015

See weather overviewHow to use our weather pages